[[{"header":{"parameterUnit":"m.s-1","parameterCategory":1,"la1":30.2991,"la2":30.254,"lo1":-89.0895,"lo2":-89.0444,"dy":0.0017,"dx":0.0017,"nx":28,"ny":28,"refTime":"2025-11-16T09:00:00:Z","depth":0,"parameterNumber":2,"parameterNumberName":"U-component_of_WINDS"},"data":[0,0,0,0,0,0,0,0,0,0,0,0,0,0,0,0,0,0,0,0,0,0,0,0,0,0,0,0,0,0,0,0,0,0,0,0,0,0,0,0,0,0,0,0,0,0,0,0,0,0,0,0,0,0,0,0,0,0,2.0284,2.0286,0,2.0443,2.0445,2.0447,2.0443,2.0441,2.0439,2.0437,2.0606,2.0612,2.0618,0,0,0,0,0,0,0,0,0,0,0,0,0,1.9984,1.999,2.0284,2.0286,2.0288,2.0443,2.0445,2.0447,2.0443,2.0441,2.0438,2.0436,2.0603,2.0611,2.0619,0,0,0,0,0,0,0,0,0,0,0,0,0,2.0126,1.9991,2.0284,2.0305,2.0308,2.0442,2.0445,2.0448,2.0444,2.0441,2.0438,2.0434,2.0601,2.061,2.062,2.0745,0,0,2.065,2.0654,0,0,0,0,0,0,0,0,2.0118,2.0137,2.03,2.0304,2.0308,2.042,2.0401,2.0548,2.0445,2.0393,2.0437,2.0433,2.0547,2.0561,2.0598,2.0753,2.076,2.0651,2.0657,2.0661,2.0664,0,0,0,0,0,0,0,2.0108,2.013,2.0347,2.0302,2.0307,2.0308,2.0325,2.0429,2.0486,2.0397,2.0397,2.0416,2.0548,2.0588,2.0602,2.0763,2.065,2.0659,2.0665,2.0669,2.103,2.1034,0,0,0,0,0,0,2.0093,2.0122,2.0342,2.0352,2.0203,2.0316,2.0335,2.0387,2.0485,2.0497,2.0418,2.0415,2.0573,2.059,2.0608,2.0761,2.0661,2.067,2.0676,2.1026,2.1031,2.1035,0,0,0,0,0,0,2.0086,2.0113,2.0336,2.0237,2.0265,2.0325,2.0384,2.0392,2.0432,2.0501,2.0512,2.0448,2.0571,2.0594,2.0711,2.0767,2.0674,2.0683,2.1022,2.1028,2.1033,2.1069,0,0,0,0,0,0,2.0078,2.011,2.0157,2.0238,2.0271,2.0434,2.0387,2.0397,2.0448,2.0445,2.0532,2.0543,2.0571,2.0696,2.0721,2.0779,2.0691,2.1017,2.1025,2.1031,2.1063,2.1075,2.1085,0,0,0,0,0,2.0067,2.0162,2.0159,2.0186,2.033,2.0437,2.0456,2.0484,2.0453,2.0501,2.0546,2.0541,2.0757,2.0708,2.0736,2.0797,2.1014,2.1022,2.1031,2.1058,2.1072,2.1085,0,0,0,0,0,0,2.0088,2.0173,2.0171,2.0294,2.0359,2.0437,2.0498,2.0499,2.0575,2.0569,2.0602,2.0622,2.0739,2.078,2.0724,2.0924,2.0882,2.0896,2.0893,2.0907,2.0918,2.0906,2.0699,0,0,0,0,0,2.0107,2.0185,2.0256,2.0358,2.039,2.0439,2.0487,2.0502,2.0571,2.0599,2.0652,2.072,2.0803,2.0858,2.0938,2.1069,2.1088,2.1125,2.1136,2.1145,2.1157,2.1229,2.1247,2.1063,2.1062,2.1062,0,0,2.0147,2.0203,2.025,2.0364,2.0415,2.0497,2.0462,2.055,2.0612,2.0613,2.0725,2.0767,2.0846,2.097,2.1027,2.1008,2.1212,2.1156,2.1162,2.117,2.124,2.1257,2.1273,2.1068,2.1067,2.1066,0,0,2.0261,2.0311,2.0402,2.0454,2.0531,2.0563,2.0585,2.0663,2.069,2.0804,2.0806,2.0881,2.1024,2.108,2.1127,2.1263,2.1262,2.1289,2.1347,2.1418,2.1432,2.1445,2.1494,2.1511,2.1301,2.1301,2.1301,0,2.0301,2.0423,2.0449,2.0537,2.0587,2.059,2.0683,2.0733,2.0834,2.087,2.0846,2.1025,2.1079,2.1216,2.1249,2.1287,2.1314,2.1279,2.1427,2.1441,2.1453,2.15,2.1519,2.1304,2.1303,2.1303,2.1303,0,2.0469,2.0554,2.0618,2.0713,2.0771,2.0861,2.0902,2.0958,2.0969,2.1004,2.112,2.1184,2.1277,2.1311,2.1324,2.1451,2.1436,2.142,2.1378,2.1473,2.1518,2.1536,2.1308,2.1307,2.1306,2.1305,0,0,2.0601,2.0709,2.0732,2.0775,2.0861,2.0928,2.102,2.1109,2.1156,2.1226,2.1304,2.1425,2.141,2.1464,2.1483,2.1545,2.1648,2.1521,2.1523,2.1542,2.1793,2.1804,2.1825,2.1648,2.1652,2.1654,2.1786,0,2.0724,2.0884,2.091,2.1051,2.113,2.1134,2.1213,2.1276,2.1311,2.1385,2.1425,2.151,2.1484,2.1516,2.1577,2.1623,2.1699,2.1614,2.1722,2.1726,2.1702,2.1848,2.186,2.1982,2.1804,2.1807,2.1809,0,2.089,2.0961,2.1109,2.1185,2.1219,2.129,2.1374,2.1444,2.1516,2.1537,2.1597,2.1609,2.1705,2.1659,2.1793,2.1734,2.1781,2.181,2.1815,2.1826,2.1773,2.1863,2.2021,2.2039,2.1837,2.1835,2.1833,0,2.0971,2.1105,2.1211,2.1248,2.1339,2.1388,2.1429,2.1497,2.1549,2.1624,2.1658,2.1744,2.1791,2.1858,2.1893,2.1856,2.2025,2.1982,2.2047,2.2046,2.2082,2.2079,2.225,2.2113,2.2112,2.2112,2.2112,0,2.1106,2.1196,2.1248,2.1313,2.1415,2.1445,2.1546,2.1586,2.1647,2.1721,2.1731,2.1801,2.1843,2.192,2.1948,2.2055,2.2077,2.2098,2.2104,2.2097,2.2094,2.2127,2.212,2.2117,2.2116,2.2115,2.2114,0,2.1214,2.1252,2.1368,2.1444,2.1465,2.1537,2.1603,2.1667,2.1702,2.1796,2.182,2.1876,2.1966,2.2008,2.2121,2.214,2.2262,2.2263,2.2237,2.2239,2.2302,2.2295,2.2499,2.2528,2.2372,2.2373,2.2375,0,2.1297,2.1366,2.1449,2.1498,2.154,2.162,2.1672,2.1705,2.176,2.1847,2.1901,2.1992,2.2066,2.2211,2.2263,2.2349,2.2352,2.2418,2.2365,2.2356,2.2353,2.2348,2.2355,2.2427,2.2429,2.243,2.2431,0,2.1441,2.1456,2.1531,2.1613,2.1675,2.1741,2.1806,2.1847,2.189,2.1952,2.2044,2.2101,2.2215,2.2305,2.2395,2.2439,2.2443,2.2447,2.2467,2.2459,2.2441,2.2452,2.2262,2.2442,2.2441,2.244,2.244,2.2439,2.1539,2.1601,2.1668,2.1752,2.1804,2.1864,2.1928,2.1971,2.2047,2.2141,2.2156,2.2254,2.2325,2.2446,2.2493,2.2571,2.2556,2.2584,2.2591,2.2598,2.2601,2.2429,2.2588,2.2588,2.2587,2.2587,2.2587,0,2.1683,2.1727,2.1803,2.1893,2.1958,2.1954,2.2026,2.2082,2.2167,2.2232,2.2304,2.241,2.2497,2.2556,2.2645,2.2696,2.27,2.2718,2.2715,2.2725,2.261,2.2584,2.2714,2.2714,2.2713,2.2713,2.2713,2.2713,2.1766,2.187,2.1894,2.2024,2.2068,2.2162,2.2203,2.226,2.2312,2.2428,2.25,2.2537,2.26,2.2693,2.2774,2.2789,2.2822,2.284,2.2855,2.2746,2.2733,2.272,2.2696,2.2847,2.2847,2.2963,2.2964,2.2965]},{"header":{"parameterUnit":"m.s-1","parameterCategory":1,"la1":30.2991,"la2":30.254,"lo1":-89.0895,"lo2":-89.0444,"dy":0.0017,"dx":0.0017,"nx":28,"ny":28,"refTime":"2025-11-16T09:00:00:Z","depth":0,"parameterNumber":3,"parameterNumberName":"V-component_of_WINDS"},"data":[0,0,0,0,0,0,0,0,0,0,0,0,0,0,0,0,0,0,0,0,0,0,0,0,0,0,0,0,0,0,0,0,0,0,0,0,0,0,0,0,0,0,0,0,0,0,0,0,0,0,0,0,0,0,0,0,0,0,1.8438,1.8438,0,1.8403,1.8403,1.8403,1.8378,1.8378,1.8377,1.8377,1.8341,1.834,1.8339,0,0,0,0,0,0,0,0,0,0,0,0,0,1.848,1.8479,1.8438,1.8438,1.8437,1.8404,1.8403,1.8403,1.8378,1.8378,1.8377,1.8377,1.8341,1.834,1.8339,0,0,0,0,0,0,0,0,0,0,0,0,0,1.8455,1.8479,1.8438,1.8421,1.8419,1.8404,1.8403,1.8402,1.8378,1.8378,1.8377,1.8377,1.8341,1.834,1.8339,1.8338,0,0,1.8335,1.8335,0,0,0,0,0,0,0,0,1.8456,1.8453,1.8424,1.8422,1.842,1.8395,1.8404,1.8381,1.8378,1.8393,1.8377,1.8377,1.8359,1.8356,1.835,1.8336,1.8334,1.8335,1.8334,1.8334,1.8333,0,0,0,0,0,0,0,1.8458,1.8455,1.8424,1.8423,1.8421,1.8414,1.841,1.84,1.8378,1.8392,1.839,1.8387,1.8358,1.8351,1.8349,1.8334,1.8335,1.8334,1.8333,1.8333,1.8314,1.8314,0,0,0,0,0,0,1.8463,1.8456,1.8425,1.8423,1.8438,1.8413,1.8409,1.8403,1.8378,1.8374,1.8387,1.8386,1.8354,1.8351,1.8348,1.8343,1.8334,1.8333,1.8332,1.8314,1.8314,1.8314,0,0,0,0,0,0,1.8464,1.846,1.8427,1.8439,1.8434,1.8413,1.8406,1.8403,1.8396,1.8374,1.837,1.8385,1.8353,1.8349,1.834,1.8342,1.8332,1.8331,1.8313,1.8314,1.8314,1.8335,0,0,0,0,0,0,1.8465,1.8461,1.8461,1.844,1.8434,1.842,1.8407,1.8402,1.8395,1.8393,1.8371,1.8367,1.8353,1.8342,1.8339,1.834,1.833,1.8313,1.8314,1.8314,1.8334,1.8336,1.8338,0,0,0,0,0,1.8467,1.8468,1.8461,1.8457,1.8434,1.8421,1.8417,1.8401,1.8395,1.8394,1.8379,1.8368,1.8342,1.8341,1.8337,1.8338,1.8313,1.8313,1.8314,1.8333,1.8335,1.8337,0,0,0,0,0,0,1.849,1.8465,1.8457,1.8452,1.8438,1.8416,1.8415,1.8404,1.8392,1.8391,1.837,1.8365,1.8358,1.8347,1.8346,1.8334,1.8326,1.8326,1.8342,1.8344,1.8346,1.8348,1.8329,0,0,0,0,0,1.8495,1.8487,1.8465,1.8463,1.8457,1.8437,1.8431,1.8419,1.8404,1.8398,1.8383,1.8369,1.8357,1.835,1.8338,1.8332,1.8326,1.8331,1.8332,1.8334,1.8334,1.8328,1.8329,1.8316,1.8316,1.8316,0,0,1.8505,1.849,1.8486,1.8467,1.8456,1.8447,1.8433,1.8424,1.8417,1.8397,1.8387,1.8375,1.8357,1.8349,1.8345,1.834,1.8336,1.8335,1.8336,1.8335,1.8329,1.833,1.8331,1.8316,1.8316,1.8316,0,0,1.8517,1.8506,1.8502,1.849,1.8473,1.8459,1.8458,1.8437,1.8429,1.8418,1.8402,1.8393,1.8374,1.8361,1.8353,1.8358,1.8347,1.8355,1.8364,1.8359,1.836,1.8361,1.8362,1.8362,1.8355,1.8355,1.8355,0,1.8531,1.8518,1.8501,1.8493,1.8484,1.8466,1.8461,1.845,1.8429,1.8423,1.8418,1.8392,1.8379,1.8367,1.8368,1.8362,1.8359,1.8358,1.8361,1.8362,1.8362,1.8363,1.8363,1.8356,1.8356,1.8356,1.8356,0,1.8535,1.8526,1.8525,1.8505,1.8496,1.849,1.8471,1.8464,1.8453,1.8439,1.8428,1.8411,1.8395,1.8391,1.838,1.8376,1.8374,1.8365,1.8356,1.8365,1.8365,1.8365,1.8358,1.8357,1.8357,1.8357,0,0,1.8562,1.8532,1.8532,1.8522,1.8501,1.8493,1.8485,1.8469,1.8463,1.8449,1.8441,1.8424,1.8416,1.8405,1.8393,1.8388,1.8392,1.838,1.8379,1.8382,1.8385,1.8391,1.8392,1.8384,1.8384,1.8384,1.8386,0,1.857,1.8556,1.854,1.853,1.8521,1.8502,1.8495,1.848,1.8468,1.8457,1.8442,1.843,1.8421,1.8414,1.8409,1.8393,1.8392,1.8392,1.8375,1.8374,1.8379,1.8392,1.8399,1.8402,1.8386,1.8386,1.8386,0,1.8578,1.8565,1.8555,1.8533,1.8529,1.8523,1.8506,1.8497,1.8479,1.847,1.8458,1.8444,1.8433,1.8425,1.8409,1.8409,1.8401,1.8392,1.8391,1.8389,1.8381,1.8389,1.8402,1.8403,1.8386,1.8386,1.8386,0,1.8597,1.8577,1.8568,1.8561,1.8535,1.8531,1.852,1.8502,1.8493,1.8478,1.8472,1.8456,1.8447,1.8434,1.8415,1.8412,1.84,1.8392,1.8391,1.8392,1.839,1.839,1.8401,1.8385,1.8385,1.8385,1.8385,0,1.8608,1.8602,1.8576,1.8571,1.8563,1.8544,1.8537,1.8524,1.8508,1.8498,1.8481,1.8472,1.8449,1.8436,1.8422,1.8409,1.8406,1.8397,1.8393,1.8398,1.8399,1.8392,1.8391,1.8385,1.8385,1.8385,1.8385,0,1.8628,1.8611,1.8599,1.8576,1.857,1.8565,1.8545,1.8538,1.8524,1.8512,1.8508,1.8485,1.847,1.845,1.8428,1.8418,1.8407,1.8402,1.8414,1.8411,1.8412,1.8412,1.8419,1.8418,1.8403,1.8403,1.8404,0,1.8636,1.8631,1.8607,1.86,1.8589,1.8578,1.8569,1.8549,1.854,1.8518,1.8514,1.8497,1.8483,1.8459,1.844,1.8423,1.8416,1.8419,1.8413,1.8418,1.8415,1.8415,1.8414,1.8421,1.8421,1.8422,1.8422,0,1.8651,1.8642,1.863,1.8614,1.8604,1.859,1.8576,1.8571,1.8548,1.8538,1.8522,1.8511,1.8489,1.8472,1.8452,1.8439,1.8426,1.8424,1.8423,1.8428,1.8434,1.843,1.8417,1.8424,1.8423,1.8423,1.8423,1.8423,1.8664,1.8658,1.864,1.8627,1.8614,1.8601,1.8593,1.8578,1.8565,1.8545,1.8534,1.8519,1.8499,1.8471,1.8459,1.8445,1.844,1.8439,1.8438,1.8438,1.8439,1.8437,1.8442,1.8441,1.8441,1.8441,1.8441,0,1.8677,1.8664,1.8652,1.8633,1.8622,1.8611,1.8594,1.8586,1.8572,1.8556,1.8542,1.8523,1.8507,1.8486,1.8467,1.846,1.8454,1.8456,1.8456,1.8453,1.8445,1.8448,1.8462,1.8462,1.8462,1.8462,1.8462,1.8462,1.8682,1.8672,1.8661,1.8643,1.863,1.8616,1.8607,1.8594,1.8581,1.8561,1.8547,1.8534,1.8515,1.8495,1.8478,1.8472,1.8466,1.847,1.8462,1.8455,1.8454,1.8452,1.8454,1.8469,1.8469,1.8471,1.8471,1.8471]}]]